[[{"header":{"parameterUnit":"m.s-1","parameterCategory":2,"la1":30.2991,"la2":30.254,"lo1":-89.0895,"lo2":-89.0444,"dy":0.0017,"dx":0.0017,"nx":28,"ny":28,"refTime":"2024-06-09T21:00:00:Z","depth":"0","parameterNumber":2,"parameterNumberName":"U-component_of_CURRENTS"},"data":[0,0,0,0,0,0,0,0,0,0,0,0,0,0,0,0,0,0,0,0,0,0,0,0,0,0,0,0,0,0,0,0,0,0,0,0,0,0,0,0,0,0,0,0,0,0,0,0,0,0,0,0,0,0,0,0,0,0,-0.2184,-0.2184,0,-0.2208,-0.2208,-0.2208,-0.2206,-0.2205,-0.2205,-0.2205,-0.2212,-0.2212,-0.2213,0,0,0,0,0,0,0,0,0,0,0,0,0,-0.2011,-0.2015,-0.2184,-0.2184,-0.2185,-0.2208,-0.2208,-0.2208,-0.2206,-0.2205,-0.2205,-0.2205,-0.2212,-0.2212,-0.2213,0,0,0,0,0,0,0,0,0,0,0,0,0,-0.2063,-0.2016,-0.2184,-0.2189,-0.219,-0.2208,-0.2208,-0.2208,-0.2206,-0.2205,-0.2205,-0.2205,-0.2212,-0.2212,-0.2213,-0.2216,0,0,-0.2214,-0.2214,0,0,0,0,0,0,0,0,-0.206,-0.2069,-0.2188,-0.2189,-0.219,-0.2207,-0.215,-0.2211,-0.2206,-0.2196,-0.2205,-0.2205,-0.2211,-0.2211,-0.2211,-0.2216,-0.2217,-0.2214,-0.2214,-0.2214,-0.2214,0,0,0,0,0,0,0,-0.2057,-0.2067,-0.219,-0.2188,-0.219,-0.2148,-0.2156,-0.2161,-0.22,-0.2197,-0.2197,-0.2206,-0.2211,-0.2211,-0.2212,-0.2217,-0.2214,-0.2214,-0.2214,-0.2214,-0.2201,-0.22,0,0,0,0,0,0,-0.2068,-0.2065,-0.2189,-0.2191,-0.2127,-0.2152,-0.2161,-0.2199,-0.2201,-0.2202,-0.2206,-0.2206,-0.221,-0.2211,-0.2212,-0.2207,-0.2214,-0.2214,-0.2214,-0.2201,-0.2201,-0.22,0,0,0,0,0,0,-0.2065,-0.208,-0.2188,-0.2128,-0.214,-0.2157,-0.2198,-0.2199,-0.2203,-0.2209,-0.2209,-0.2209,-0.221,-0.2211,-0.2211,-0.2207,-0.2214,-0.2215,-0.2202,-0.2201,-0.22,-0.2203,0,0,0,0,0,0,-0.206,-0.208,-0.209,-0.2131,-0.2144,-0.2204,-0.2198,-0.22,-0.221,-0.221,-0.2212,-0.2212,-0.221,-0.221,-0.2211,-0.2208,-0.2215,-0.2203,-0.2202,-0.2201,-0.2204,-0.2202,-0.2201,0,0,0,0,0,-0.2055,-0.2074,-0.2092,-0.2105,-0.2167,-0.2205,-0.2207,-0.2214,-0.221,-0.2215,-0.2208,-0.2212,-0.2204,-0.221,-0.2211,-0.2208,-0.2203,-0.2202,-0.2201,-0.2204,-0.2203,-0.2201,0,0,0,0,0,0,-0.2,-0.2078,-0.2097,-0.2139,-0.2173,-0.2206,-0.2211,-0.2217,-0.2216,-0.2213,-0.2211,-0.2211,-0.2203,-0.2206,-0.2213,-0.2199,-0.2202,-0.2201,-0.2204,-0.2203,-0.2201,-0.2217,-0.2215,0,0,0,0,0,-0.1998,-0.2033,-0.2099,-0.2126,-0.2155,-0.2183,-0.2193,-0.2205,-0.2218,-0.2218,-0.2217,-0.221,-0.2198,-0.2202,-0.2193,-0.2196,-0.2216,-0.2191,-0.219,-0.2189,-0.2201,-0.2224,-0.2227,-0.2196,-0.2196,-0.2196,0,0,-0.1978,-0.2027,-0.2043,-0.2115,-0.2147,-0.218,-0.2189,-0.2217,-0.2226,-0.2219,-0.2219,-0.2205,-0.2195,-0.2188,-0.2186,-0.2194,-0.2208,-0.2188,-0.2187,-0.22,-0.2223,-0.2226,-0.2229,-0.2195,-0.2195,-0.2195,0,0,-0.1955,-0.2017,-0.2037,-0.2082,-0.2139,-0.2167,-0.2179,-0.2221,-0.2225,-0.2229,-0.2215,-0.2203,-0.2196,-0.2188,-0.2182,-0.2172,-0.2195,-0.2164,-0.2181,-0.2203,-0.2206,-0.2209,-0.2244,-0.225,-0.2171,-0.2171,-0.2171,0,-0.1923,-0.1973,-0.2041,-0.2081,-0.2114,-0.2166,-0.2192,-0.2211,-0.2233,-0.2245,-0.2229,-0.2217,-0.2195,-0.2199,-0.2178,-0.2171,-0.2194,-0.2189,-0.2204,-0.2207,-0.221,-0.2245,-0.2252,-0.2171,-0.2171,-0.2171,-0.2171,0,-0.1926,-0.1964,-0.1987,-0.2062,-0.2105,-0.2138,-0.22,-0.2226,-0.2235,-0.225,-0.2255,-0.2229,-0.2226,-0.2207,-0.2183,-0.2193,-0.2206,-0.2195,-0.2213,-0.2214,-0.225,-0.2257,-0.2171,-0.2171,-0.2171,-0.2171,0,0,-0.1865,-0.1963,-0.1971,-0.2,-0.2102,-0.2136,-0.2186,-0.2241,-0.227,-0.2278,-0.2305,-0.2261,-0.2259,-0.225,-0.2227,-0.2235,-0.2254,-0.2221,-0.2223,-0.2267,-0.232,-0.2233,-0.2233,-0.2251,-0.2252,-0.2253,-0.2339,0,-0.1841,-0.1888,-0.1953,-0.1996,-0.2036,-0.2126,-0.2164,-0.2225,-0.2267,-0.2307,-0.2313,-0.2311,-0.2275,-0.226,-0.2268,-0.2257,-0.2273,-0.2233,-0.2304,-0.2306,-0.2237,-0.2238,-0.2105,-0.216,-0.2346,-0.2347,-0.2348,0,-0.1829,-0.1863,-0.1896,-0.1977,-0.2006,-0.2034,-0.2138,-0.2173,-0.2268,-0.2301,-0.2343,-0.2357,-0.237,-0.2326,-0.2356,-0.2337,-0.2325,-0.2322,-0.2325,-0.225,-0.2232,-0.2187,-0.2167,-0.2142,-0.2359,-0.2358,-0.2358,0,-0.1761,-0.1828,-0.1844,-0.1879,-0.1978,-0.2005,-0.2051,-0.2159,-0.2198,-0.2294,-0.233,-0.2387,-0.238,-0.2411,-0.239,-0.2382,-0.2427,-0.242,-0.2346,-0.2342,-0.2244,-0.2228,-0.2215,-0.2441,-0.2441,-0.2441,-0.2441,0,-0.1729,-0.1742,-0.1803,-0.1821,-0.1849,-0.1936,-0.1981,-0.2058,-0.2149,-0.2195,-0.2294,-0.2327,-0.2393,-0.2428,-0.2432,-0.2408,-0.2465,-0.2355,-0.2353,-0.2239,-0.2221,-0.2207,-0.2232,-0.2444,-0.2443,-0.2443,-0.2442,0,-0.1665,-0.1706,-0.1729,-0.1799,-0.1821,-0.1837,-0.1927,-0.1965,-0.2056,-0.2125,-0.215,-0.2275,-0.2321,-0.239,-0.2432,-0.2422,-0.2385,-0.2405,-0.2269,-0.2247,-0.2142,-0.2172,-0.2177,-0.2119,-0.2364,-0.2362,-0.2361,0,-0.1636,-0.1637,-0.1695,-0.1708,-0.1734,-0.177,-0.1809,-0.1909,-0.1956,-0.2078,-0.2102,-0.2179,-0.2225,-0.2289,-0.2294,-0.2328,-0.2307,-0.2212,-0.2151,-0.2118,-0.2152,-0.2163,-0.2115,-0.2041,-0.2037,-0.2034,-0.2031,0,-0.1575,-0.159,-0.161,-0.1634,-0.166,-0.1696,-0.1744,-0.177,-0.1885,-0.1939,-0.2007,-0.2048,-0.2113,-0.2097,-0.2128,-0.2116,-0.2137,-0.2143,-0.2145,-0.1923,-0.1902,-0.1849,-0.2027,-0.2002,-0.2005,-0.2007,-0.2009,-0.201,-0.1517,-0.1514,-0.1534,-0.1552,-0.158,-0.1596,-0.1591,-0.1658,-0.1697,-0.1756,-0.1854,-0.1886,-0.1917,-0.1938,-0.1939,-0.1863,-0.1929,-0.1801,-0.1855,-0.1881,-0.1765,-0.1876,-0.1814,-0.1816,-0.1818,-0.1819,-0.182,0,-0.1438,-0.1443,-0.1454,-0.1464,-0.145,-0.1499,-0.1534,-0.1513,-0.1518,-0.1607,-0.1642,-0.1688,-0.1655,-0.1701,-0.1673,-0.1612,-0.1575,-0.1568,-0.156,-0.1534,-0.1654,-0.1574,-0.1411,-0.1411,-0.1411,-0.1411,-0.1411,-0.1411,-0.1395,-0.1371,-0.1377,-0.1323,-0.1327,-0.1277,-0.1271,-0.1264,-0.1301,-0.1325,-0.1384,-0.148,-0.1522,-0.1648,-0.1569,-0.1486,-0.1469,-0.1394,-0.146,-0.155,-0.1576,-0.1601,-0.1529,-0.1359,-0.1359,-0.1238,-0.1237,-0.1237]},{"header":{"parameterUnit":"m.s-1","parameterCategory":2,"la1":30.2991,"la2":30.254,"lo1":-89.0895,"lo2":-89.0444,"dy":0.0017,"dx":0.0017,"nx":28,"ny":28,"refTime":"2024-06-09T21:00:00:Z","depth":"0","parameterNumber":3,"parameterNumberName":"V-component_of_CURRENTS"},"data":[0,0,0,0,0,0,0,0,0,0,0,0,0,0,0,0,0,0,0,0,0,0,0,0,0,0,0,0,0,0,0,0,0,0,0,0,0,0,0,0,0,0,0,0,0,0,0,0,0,0,0,0,0,0,0,0,0,0,-0.0416,-0.0416,0,-0.0388,-0.0388,-0.0387,-0.0362,-0.0362,-0.0361,-0.0361,-0.0238,-0.0235,-0.0232,0,0,0,0,0,0,0,0,0,0,0,0,0,-0.0328,-0.0331,-0.0416,-0.0416,-0.0416,-0.0388,-0.0388,-0.0387,-0.0362,-0.0362,-0.0361,-0.0361,-0.0239,-0.0235,-0.0232,0,0,0,0,0,0,0,0,0,0,0,0,0,-0.0339,-0.0332,-0.0416,-0.04,-0.0399,-0.0388,-0.0388,-0.0387,-0.0362,-0.0362,-0.0361,-0.0361,-0.024,-0.0236,-0.0231,-0.0209,0,0,-0.0217,-0.0215,0,0,0,0,0,0,0,0,-0.0339,-0.0343,-0.0403,-0.0401,-0.04,-0.0379,-0.0312,-0.0323,-0.0362,-0.0375,-0.0361,-0.0361,-0.0277,-0.027,-0.0265,-0.0204,-0.0198,-0.0217,-0.0214,-0.0212,-0.0211,0,0,0,0,0,0,0,-0.0338,-0.0343,-0.0404,-0.0403,-0.0401,-0.0354,-0.0356,-0.0313,-0.0326,-0.0374,-0.0372,-0.0371,-0.0275,-0.027,-0.0262,-0.0196,-0.0217,-0.0213,-0.021,-0.0208,-0.0071,-0.0071,0,0,0,0,0,0,-0.0351,-0.0343,-0.0405,-0.0403,-0.0369,-0.0356,-0.0359,-0.0385,-0.0328,-0.032,-0.0371,-0.037,-0.0278,-0.0267,-0.0257,-0.02,-0.0212,-0.0208,-0.0205,-0.0072,-0.0071,-0.007,0,0,0,0,0,0,-0.035,-0.0358,-0.0406,-0.0371,-0.0374,-0.0359,-0.0388,-0.0385,-0.0375,-0.0327,-0.0317,-0.0365,-0.0277,-0.0264,-0.0208,-0.0196,-0.0206,-0.0201,-0.0073,-0.0072,-0.0071,-0.0103,0,0,0,0,0,0,-0.0348,-0.0358,-0.0376,-0.0373,-0.0377,-0.0393,-0.0389,-0.0385,-0.0375,-0.0373,-0.0318,-0.0307,-0.0276,-0.0215,-0.0203,-0.019,-0.0198,-0.0074,-0.0073,-0.0071,-0.0103,-0.0103,-0.0103,0,0,0,0,0,-0.0345,-0.037,-0.0378,-0.0384,-0.0405,-0.0393,-0.039,-0.0375,-0.0376,-0.0367,-0.0328,-0.0309,-0.0196,-0.021,-0.0197,-0.0182,-0.0075,-0.0073,-0.0071,-0.0103,-0.0103,-0.0103,0,0,0,0,0,0,-0.0339,-0.037,-0.0378,-0.0412,-0.04,-0.0389,-0.0387,-0.0376,-0.0342,-0.034,-0.0295,-0.028,-0.0227,-0.0198,-0.0215,-0.0137,-0.0133,-0.0129,-0.0162,-0.0161,-0.0161,-0.0165,-0.0194,0,0,0,0,0,-0.0349,-0.0378,-0.0385,-0.0408,-0.0411,-0.04,-0.0393,-0.0383,-0.0356,-0.0343,-0.0303,-0.0257,-0.021,-0.0182,-0.0137,-0.0093,-0.0069,-0.0074,-0.0074,-0.0074,-0.0067,-0.0028,-0.0024,-0.0064,-0.0064,-0.0064,0,0,-0.0357,-0.0372,-0.0391,-0.0407,-0.0406,-0.0401,-0.0395,-0.0389,-0.0369,-0.0332,-0.0291,-0.0253,-0.0198,-0.0149,-0.0123,-0.0122,-0.0051,-0.0072,-0.0073,-0.0065,-0.0026,-0.0022,-0.0019,-0.0063,-0.0063,-0.0063,0,0,-0.0376,-0.04,-0.0429,-0.0418,-0.0416,-0.0401,-0.04,-0.0385,-0.0366,-0.0322,-0.0292,-0.0243,-0.0176,-0.0133,-0.0103,-0.0073,-0.0052,-0.0064,-0.0065,-0.0028,-0.0025,-0.0022,0.0006,0.0012,-0.0065,-0.0065,-0.0065,0,-0.0383,-0.0426,-0.0427,-0.0435,-0.0429,-0.0404,-0.0411,-0.038,-0.0339,-0.0321,-0.0308,-0.0211,-0.0164,-0.0104,-0.0093,-0.0072,-0.0056,-0.0075,-0.003,-0.0026,-0.0022,0.0006,0.0013,-0.0066,-0.0066,-0.0066,-0.0066,0,-0.0417,-0.0441,-0.0451,-0.0461,-0.0443,-0.0444,-0.0407,-0.038,-0.0352,-0.0321,-0.026,-0.0197,-0.0143,-0.0119,-0.0092,-0.0043,-0.0043,-0.0038,-0.0036,-0.0021,0.0009,0.0016,-0.0068,-0.0068,-0.0067,-0.0067,0,0,-0.0462,-0.0481,-0.0482,-0.0496,-0.046,-0.0457,-0.0412,-0.0378,-0.0362,-0.0296,-0.0269,-0.0176,-0.0153,-0.0117,-0.0081,-0.004,0.0003,-0.0032,-0.0029,-0.0015,0.0073,0.01,0.0111,0.0005,0.0007,0.0008,0.0079,0,-0.0494,-0.0531,-0.0516,-0.0526,-0.0544,-0.0493,-0.0458,-0.0409,-0.036,-0.0318,-0.024,-0.0196,-0.0149,-0.0135,-0.0081,-0.002,0.0023,-0.0017,0.0067,0.007,0.0082,0.0122,0.0136,0.0203,0.0087,0.0089,0.009,0,-0.0531,-0.0554,-0.0584,-0.0585,-0.0589,-0.0573,-0.0528,-0.0493,-0.0408,-0.0374,-0.0303,-0.0247,-0.0161,-0.0137,-0.0008,-0.0043,0.0017,0.0067,0.007,0.0115,0.0112,0.0173,0.0222,0.0363,0.0102,0.0101,0.01,0,-0.0574,-0.0598,-0.063,-0.0626,-0.0613,-0.0608,-0.0588,-0.0513,-0.0495,-0.0412,-0.0394,-0.028,-0.0236,-0.0133,-0.0009,-0.0017,0.0122,0.0121,0.0205,0.0207,0.0249,0.0253,0.0439,0.021,0.021,0.021,0.0209,0,-0.0612,-0.0637,-0.066,-0.0676,-0.0705,-0.0666,-0.0669,-0.0627,-0.0571,-0.0556,-0.0437,-0.0402,-0.0235,-0.0131,-0.0021,0.0125,0.0116,0.0221,0.0236,0.0238,0.024,0.0388,0.0441,0.0212,0.0212,0.0211,0.0211,0,-0.0646,-0.0662,-0.0708,-0.0723,-0.0731,-0.0747,-0.0742,-0.074,-0.0677,-0.0653,-0.0633,-0.0492,-0.0352,-0.0181,-0.001,0.0101,0.0321,0.0286,0.0278,0.0291,0.0499,0.0548,0.073,0.0799,0.0394,0.0395,0.0396,0,-0.0668,-0.0697,-0.0753,-0.0787,-0.0799,-0.0822,-0.0836,-0.0797,-0.0792,-0.0711,-0.0706,-0.0563,-0.0454,-0.0174,0.0056,0.0272,0.0368,0.0402,0.0405,0.0536,0.0601,0.0626,0.0672,0.0444,0.0445,0.0447,0.0447,0,-0.0703,-0.0726,-0.0767,-0.0847,-0.0887,-0.0928,-0.0944,-0.0961,-0.0909,-0.0878,-0.081,-0.0718,-0.0427,-0.0149,0.0153,0.0277,0.0505,0.0431,0.0577,0.0677,0.0707,0.0771,0.0363,0.0457,0.0456,0.0456,0.0455,0.0455,-0.0725,-0.077,-0.0834,-0.0904,-0.0958,-0.1016,-0.1046,-0.1054,-0.1054,-0.0993,-0.0897,-0.0735,-0.0311,0.0128,0.0293,0.0646,0.06,0.0729,0.0781,0.0798,0.0867,0.0481,0.0583,0.0583,0.0583,0.0582,0.0582,0,-0.0752,-0.0809,-0.0886,-0.0975,-0.1043,-0.1054,-0.1104,-0.1119,-0.1124,-0.1025,-0.0934,-0.0505,-0.0089,0.0312,0.0827,0.1004,0.1035,0.107,0.1123,0.1157,0.0833,0.0839,0.0988,0.0988,0.0988,0.0987,0.0987,0.0987,-0.0771,-0.0852,-0.09,-0.1024,-0.1083,-0.1157,-0.1183,-0.1192,-0.1129,-0.095,-0.0719,-0.0528,0.0056,0.0878,0.1342,0.1365,0.1512,0.1465,0.1556,0.1348,0.1321,0.1294,0.1316,0.1563,0.1563,0.1857,0.186,0.1863]}],[{"header":{"parameterUnit":"m.s-1","parameterCategory":2,"la1":30.2991,"la2":30.254,"lo1":-89.0895,"lo2":-89.0444,"dy":0.0017,"dx":0.0017,"nx":28,"ny":28,"refTime":"2024-06-09T21:00:00:Z","depth":"2","parameterNumber":2,"parameterNumberName":"U-component_of_CURRENTS"},"data":[0,0,0,0,0,0,0,0,0,0,0,0,0,0,0,0,0,0,0,0,0,0,0,0,0,0,0,0,0,0,0,0,0,0,0,0,0,0,0,0,0,0,0,0,0,0,0,0,0,0,0,0,0,0,0,0,0,0,-0.2004,-0.2006,0,-0.2095,-0.2095,-0.2095,-0.2085,-0.2085,-0.2084,-0.2084,-0.2083,-0.2084,-0.2084,0,0,0,0,0,0,0,0,0,0,0,0,0,-0.1801,-0.1804,-0.2004,-0.2006,-0.2008,-0.2095,-0.2095,-0.2095,-0.2085,-0.2085,-0.2084,-0.2084,-0.2083,-0.2084,-0.2084,0,0,0,0,0,0,0,0,0,0,0,0,0,-0.188,-0.1805,-0.2003,-0.2022,-0.2025,-0.2095,-0.2095,-0.2096,-0.2085,-0.2085,-0.2084,-0.2084,-0.2083,-0.2084,-0.2084,-0.2101,0,0,-0.2086,-0.2086,0,0,0,0,0,0,0,0,-0.1875,-0.1886,-0.2017,-0.2021,-0.2025,-0.2088,-0.2024,-0.2097,-0.2086,-0.2051,-0.2084,-0.2083,-0.2084,-0.2085,-0.2089,-0.2101,-0.2101,-0.2086,-0.2087,-0.2087,-0.2087,0,0,0,0,0,0,0,-0.187,-0.1882,-0.2029,-0.202,-0.2024,-0.202,-0.2029,-0.2037,-0.206,-0.2054,-0.2056,-0.2084,-0.2084,-0.2088,-0.2089,-0.2101,-0.2086,-0.2087,-0.2087,-0.2087,-0.2081,-0.208,0,0,0,0,0,0,-0.1883,-0.1877,-0.2026,-0.2033,-0.1959,-0.2024,-0.2034,-0.2059,-0.2062,-0.2066,-0.2085,-0.2084,-0.2088,-0.2088,-0.2089,-0.2085,-0.2087,-0.2087,-0.2088,-0.2081,-0.2081,-0.208,0,0,0,0,0,0,-0.1879,-0.1896,-0.2023,-0.1965,-0.1983,-0.203,-0.2057,-0.2062,-0.2071,-0.2088,-0.2087,-0.2091,-0.2087,-0.2088,-0.2088,-0.2086,-0.2088,-0.2088,-0.2082,-0.2081,-0.2081,-0.2093,0,0,0,0,0,0,-0.1872,-0.1893,-0.1896,-0.1967,-0.1987,-0.2063,-0.2059,-0.2064,-0.2094,-0.2093,-0.2094,-0.2093,-0.2087,-0.2087,-0.2088,-0.2087,-0.2089,-0.2083,-0.2082,-0.2081,-0.2093,-0.2093,-0.2093,0,0,0,0,0,-0.1864,-0.1878,-0.1895,-0.1913,-0.1996,-0.2065,-0.2073,-0.2097,-0.2095,-0.21,-0.2093,-0.2093,-0.2081,-0.2087,-0.2089,-0.2088,-0.2083,-0.2082,-0.2081,-0.2094,-0.2093,-0.2093,0,0,0,0,0,0,-0.1795,-0.1882,-0.1901,-0.1941,-0.2001,-0.2068,-0.2078,-0.2102,-0.2103,-0.2098,-0.2095,-0.2094,-0.2087,-0.2087,-0.2094,-0.208,-0.2079,-0.2078,-0.2088,-0.2087,-0.2087,-0.2095,-0.2089,0,0,0,0,0,-0.1785,-0.1811,-0.1901,-0.1931,-0.1963,-0.202,-0.2046,-0.2077,-0.2104,-0.2104,-0.2104,-0.2096,-0.2085,-0.2087,-0.2077,-0.2083,-0.2094,-0.2078,-0.2078,-0.2078,-0.2084,-0.2106,-0.2109,-0.2076,-0.2076,-0.2076,0,0,-0.177,-0.182,-0.1836,-0.1917,-0.196,-0.2004,-0.2031,-0.2086,-0.2109,-0.2104,-0.2107,-0.2096,-0.2083,-0.2077,-0.2075,-0.2079,-0.209,-0.2076,-0.2076,-0.2082,-0.2105,-0.2109,-0.2112,-0.2076,-0.2076,-0.2076,0,0,-0.1753,-0.1798,-0.1812,-0.1864,-0.1946,-0.1993,-0.2013,-0.2085,-0.2096,-0.2118,-0.2104,-0.2096,-0.2092,-0.2081,-0.2074,-0.2069,-0.2082,-0.2061,-0.2076,-0.2097,-0.2101,-0.2104,-0.2116,-0.212,-0.2067,-0.2068,-0.2068,0,-0.1725,-0.1765,-0.1828,-0.1861,-0.1902,-0.1988,-0.202,-0.2056,-0.2111,-0.2128,-0.2116,-0.2112,-0.2092,-0.2094,-0.2074,-0.207,-0.2084,-0.2082,-0.2099,-0.2103,-0.2106,-0.2117,-0.2122,-0.2068,-0.2068,-0.2068,-0.2068,0,-0.1729,-0.1757,-0.1776,-0.1842,-0.1891,-0.1941,-0.2021,-0.2057,-0.2087,-0.2125,-0.2139,-0.212,-0.2119,-0.2105,-0.2082,-0.2092,-0.2094,-0.2093,-0.2107,-0.211,-0.2121,-0.2126,-0.2069,-0.2068,-0.2068,-0.2068,0,0,-0.1678,-0.1758,-0.1763,-0.1785,-0.1889,-0.1935,-0.1987,-0.2064,-0.2096,-0.2135,-0.216,-0.2135,-0.2145,-0.2136,-0.2118,-0.2129,-0.2141,-0.2117,-0.2118,-0.2139,-0.2189,-0.2105,-0.2102,-0.2152,-0.2153,-0.2153,-0.2186,0,-0.1659,-0.1698,-0.175,-0.1793,-0.1828,-0.1918,-0.1956,-0.2036,-0.2091,-0.2134,-0.216,-0.2165,-0.2155,-0.214,-0.2157,-0.2141,-0.2155,-0.2132,-0.2173,-0.2174,-0.2108,-0.2105,-0.1933,-0.194,-0.2191,-0.2191,-0.2192,0,-0.1648,-0.1676,-0.1705,-0.1773,-0.1796,-0.1831,-0.1925,-0.197,-0.207,-0.2106,-0.2158,-0.2185,-0.2205,-0.2183,-0.2214,-0.2204,-0.2193,-0.2189,-0.2191,-0.2113,-0.2098,-0.1977,-0.1939,-0.22,-0.2199,-0.2199,-0.2198,0,-0.159,-0.1646,-0.1662,-0.169,-0.1781,-0.1803,-0.1853,-0.1957,-0.1998,-0.2087,-0.2123,-0.2187,-0.2189,-0.2223,-0.2216,-0.2219,-0.2244,-0.2252,-0.2178,-0.2172,-0.2032,-0.2012,-0.2272,-0.2272,-0.2271,-0.2271,-0.2271,0,-0.156,-0.1572,-0.1631,-0.1645,-0.1673,-0.1747,-0.1789,-0.186,-0.1942,-0.1993,-0.2089,-0.2123,-0.2196,-0.2228,-0.2235,-0.2215,-0.2267,-0.2178,-0.2174,-0.2029,-0.2009,-0.2239,-0.2235,-0.2273,-0.2272,-0.2272,-0.2272,0,-0.15,-0.1539,-0.1561,-0.1626,-0.1648,-0.1665,-0.1747,-0.1782,-0.1865,-0.193,-0.1955,-0.2072,-0.2114,-0.2178,-0.2212,-0.2207,-0.2211,-0.2185,-0.2002,-0.1975,-0.2127,-0.2123,-0.2131,-0.2128,-0.2126,-0.2124,-0.2122,0,-0.1473,-0.1475,-0.1532,-0.1546,-0.157,-0.1608,-0.1644,-0.1735,-0.1777,-0.1892,-0.1914,-0.1984,-0.2025,-0.2064,-0.2064,-0.2079,-0.2139,-0.1917,-0.1884,-0.2117,-0.2113,-0.2113,-0.2112,-0.1708,-0.1703,-0.1699,-0.1696,0,-0.1415,-0.1432,-0.1451,-0.1477,-0.1504,-0.1538,-0.1586,-0.161,-0.1716,-0.1765,-0.1827,-0.1861,-0.1907,-0.1851,-0.1857,-0.1839,-0.1909,-0.1835,-0.2129,-0.1763,-0.1718,-0.1715,-0.1728,-0.166,-0.1664,-0.1667,-0.1669,-0.167,-0.1362,-0.136,-0.1382,-0.14,-0.143,-0.1445,-0.1441,-0.1504,-0.1539,-0.1592,-0.1682,-0.1687,-0.1708,-0.1644,-0.1592,-0.1561,-0.1696,-0.1632,-0.1644,-0.1661,-0.1598,-0.1552,-0.1451,-0.1453,-0.1455,-0.1457,-0.1458,0,-0.1288,-0.1295,-0.1306,-0.1318,-0.1308,-0.1355,-0.1387,-0.1368,-0.1371,-0.1442,-0.1471,-0.1364,-0.1326,-0.136,-0.1265,-0.1258,-0.1247,-0.12,-0.1186,-0.1221,-0.1253,-0.117,-0.0909,-0.0907,-0.0906,-0.0905,0,0,-0.1249,-0.1227,-0.1233,-0.1186,-0.1193,-0.115,-0.1144,-0.1136,-0.1158,-0.1143,-0.115,-0.1261,-0.1314,-0.1115,-0.1066,-0.0977,-0.1086,-0.0923,-0.136,-0.1377,-0.1406,-0.1493,-0.1404,0,0,0,0,0]},{"header":{"parameterUnit":"m.s-1","parameterCategory":2,"la1":30.2991,"la2":30.254,"lo1":-89.0895,"lo2":-89.0444,"dy":0.0017,"dx":0.0017,"nx":28,"ny":28,"refTime":"2024-06-09T21:00:00:Z","depth":"2","parameterNumber":3,"parameterNumberName":"V-component_of_CURRENTS"},"data":[0,0,0,0,0,0,0,0,0,0,0,0,0,0,0,0,0,0,0,0,0,0,0,0,0,0,0,0,0,0,0,0,0,0,0,0,0,0,0,0,0,0,0,0,0,0,0,0,0,0,0,0,0,0,0,0,0,0,-0.0212,-0.0212,0,-0.0197,-0.0196,-0.0196,-0.0171,-0.017,-0.017,-0.0169,-0.0054,-0.0051,-0.0049,0,0,0,0,0,0,0,0,0,0,0,0,0,-0.0159,-0.016,-0.0213,-0.0212,-0.0212,-0.0197,-0.0196,-0.0196,-0.0171,-0.017,-0.017,-0.0169,-0.0055,-0.0052,-0.0049,0,0,0,0,0,0,0,0,0,0,0,0,0,-0.0166,-0.0161,-0.0213,-0.0198,-0.0196,-0.0197,-0.0196,-0.0196,-0.0171,-0.017,-0.0169,-0.0169,-0.0056,-0.0052,-0.0048,-0.0037,0,0,-0.0036,-0.0034,0,0,0,0,0,0,0,0,-0.0166,-0.0168,-0.02,-0.0199,-0.0197,-0.0185,-0.0135,-0.0138,-0.0171,-0.018,-0.0169,-0.0169,-0.0089,-0.0083,-0.0082,-0.0031,-0.0026,-0.0036,-0.0033,-0.0031,-0.003,0,0,0,0,0,0,0,-0.0166,-0.0169,-0.0206,-0.02,-0.0198,-0.0171,-0.0172,-0.0136,-0.0137,-0.0179,-0.0177,-0.0176,-0.0088,-0.0086,-0.0079,-0.0025,-0.0036,-0.0032,-0.003,-0.0028,0.0091,0.0092,0,0,0,0,0,0,-0.0173,-0.0169,-0.0206,-0.0205,-0.018,-0.0173,-0.0174,-0.0189,-0.0139,-0.0132,-0.0177,-0.0175,-0.0093,-0.0084,-0.0075,-0.0023,-0.0032,-0.0028,-0.0025,0.009,0.0091,0.0092,0,0,0,0,0,0,-0.0172,-0.0177,-0.0207,-0.0185,-0.0187,-0.0175,-0.0192,-0.0189,-0.0185,-0.0139,-0.0129,-0.0175,-0.0092,-0.008,-0.0033,-0.002,-0.0026,-0.0022,0.0089,0.0091,0.0092,0.0058,0,0,0,0,0,0,-0.0171,-0.0177,-0.0193,-0.0187,-0.0189,-0.0199,-0.0193,-0.019,-0.0186,-0.0183,-0.0134,-0.0123,-0.0091,-0.0039,-0.0029,-0.0014,-0.0019,0.0088,0.009,0.0091,0.0058,0.0058,0.0058,0,0,0,0,0,-0.0169,-0.0192,-0.0194,-0.0198,-0.0211,-0.0199,-0.0197,-0.0185,-0.0186,-0.018,-0.0146,-0.0124,-0.0023,-0.0036,-0.0024,-0.0007,0.0088,0.009,0.0091,0.0058,0.0058,0.0058,0,0,0,0,0,0,-0.0178,-0.0192,-0.0193,-0.022,-0.0207,-0.0195,-0.0198,-0.0188,-0.0161,-0.0161,-0.0117,-0.0103,-0.0056,-0.0027,-0.0043,0.0033,0.0037,0.0042,0.0008,0.0008,0.0008,0.0007,-0.0016,0,0,0,0,0,-0.0188,-0.021,-0.0205,-0.0225,-0.0225,-0.0213,-0.021,-0.0198,-0.0175,-0.0164,-0.0127,-0.0085,-0.0041,-0.0014,0.0027,0.0065,0.0091,0.0086,0.0085,0.0085,0.0093,0.0136,0.014,0.0098,0.0098,0.0098,0,0,-0.0201,-0.0208,-0.0223,-0.0227,-0.0225,-0.0218,-0.0209,-0.0206,-0.0188,-0.0154,-0.012,-0.0085,-0.0032,0.0013,0.0037,0.004,0.0109,0.0087,0.0086,0.0095,0.0138,0.0142,0.0145,0.0099,0.0099,0.0099,0,0,-0.023,-0.0241,-0.0267,-0.0252,-0.0245,-0.0228,-0.0227,-0.021,-0.0191,-0.0154,-0.0125,-0.008,-0.0019,0.0025,0.0054,0.0079,0.0104,0.0088,0.009,0.013,0.0134,0.0137,0.0164,0.0171,0.009,0.009,0.009,0,-0.0243,-0.0275,-0.0267,-0.0272,-0.0264,-0.0233,-0.0238,-0.0208,-0.0172,-0.0154,-0.0142,-0.0052,-0.0008,0.0051,0.0062,0.008,0.0097,0.0082,0.0128,0.0132,0.0137,0.0164,0.0171,0.0089,0.0089,0.0089,0.0089,0,-0.028,-0.0298,-0.0307,-0.0305,-0.0287,-0.0286,-0.0243,-0.0217,-0.019,-0.0159,-0.01,-0.0041,0.0011,0.0035,0.006,0.0111,0.011,0.0118,0.0123,0.0138,0.0167,0.0175,0.0087,0.0087,0.0088,0.0088,0,0,-0.0326,-0.0339,-0.0339,-0.0349,-0.0306,-0.0301,-0.0257,-0.0219,-0.0203,-0.0138,-0.0111,-0.0022,0.0001,0.0037,0.0073,0.0118,0.0161,0.0126,0.0129,0.0143,0.0236,0.0254,0.0265,0.0167,0.0168,0.017,0.024,0,-0.036,-0.0393,-0.0375,-0.0384,-0.0397,-0.0341,-0.0307,-0.0256,-0.0206,-0.0164,-0.0083,-0.0042,0.0005,0.0018,0.0076,0.0137,0.0183,0.0141,0.023,0.0233,0.0238,0.0275,0.0251,0.0313,0.0248,0.0249,0.025,0,-0.0395,-0.0415,-0.0443,-0.0442,-0.0442,-0.0427,-0.0378,-0.0345,-0.0258,-0.0223,-0.0151,-0.0095,-0.0007,0.0019,0.0152,0.0117,0.0177,0.0229,0.0233,0.027,0.0266,0.0292,0.0331,0.0264,0.0263,0.0262,0.0261,0,-0.0436,-0.0457,-0.0488,-0.0483,-0.0467,-0.0462,-0.0442,-0.0366,-0.0347,-0.0264,-0.0245,-0.0128,-0.0083,0.0024,0.0149,0.0143,0.0285,0.0287,0.0365,0.0366,0.0377,0.0377,0.0381,0.0381,0.038,0.038,0.038,0,-0.0471,-0.0495,-0.0518,-0.0531,-0.056,-0.0521,-0.0524,-0.0481,-0.0425,-0.0405,-0.029,-0.0249,-0.0081,0.0025,0.0137,0.0282,0.0279,0.038,0.0395,0.0364,0.0362,0.0345,0.034,0.0383,0.0382,0.0382,0.0381,0,-0.0502,-0.0518,-0.0561,-0.0576,-0.0584,-0.06,-0.0595,-0.0592,-0.0531,-0.0501,-0.048,-0.0339,-0.0196,-0.0026,0.0149,0.0257,0.0394,0.0441,0.0391,0.04,0.0448,0.0441,0.0539,0.0541,0.0542,0.0543,0.0544,0,-0.0522,-0.055,-0.0604,-0.0637,-0.0649,-0.0672,-0.0684,-0.0646,-0.0638,-0.0554,-0.0543,-0.0401,-0.0284,-0.0009,0.0204,0.0413,0.0414,0.0504,0.0505,0.0465,0.0469,0.046,0.0451,0.05,0.05,0.05,0.0501,0,-0.0556,-0.0578,-0.0617,-0.0693,-0.0731,-0.0768,-0.0783,-0.0796,-0.0741,-0.0705,-0.0624,-0.0526,-0.0249,-0.0001,0.0276,0.0392,0.0474,0.0518,0.0502,0.0461,0.0434,0.0435,0.0427,0.0504,0.0503,0.0503,0.0503,0.0503,-0.0577,-0.0619,-0.068,-0.0747,-0.0798,-0.0847,-0.0874,-0.0874,-0.0865,-0.0792,-0.069,-0.0525,-0.0265,0.013,0.0334,0.052,0.0517,0.057,0.0567,0.0564,0.0545,0.0521,0.0603,0.0603,0.0603,0.0604,0.0604,0,-0.0604,-0.0657,-0.0729,-0.0812,-0.0874,-0.0886,-0.0925,-0.0932,-0.0922,-0.0817,-0.0713,-0.0447,-0.0152,0.0103,0.0412,0.0601,0.0584,0.0616,0.0568,0.0564,0.0561,0.054,0.0598,0.0599,0.0599,0.06,0,0,-0.0623,-0.0699,-0.0742,-0.0854,-0.091,-0.0977,-0.0997,-0.0991,-0.0925,-0.0831,-0.0696,-0.0481,-0.0152,0.0066,0.0306,0.0465,0.0459,0.0468,0.0453,0.0366,0.036,0.0518,0.048,0,0,0,0,0]}],[{"header":{"parameterUnit":"m.s-1","parameterCategory":2,"la1":30.2991,"la2":30.254,"lo1":-89.0895,"lo2":-89.0444,"dy":0.0017,"dx":0.0017,"nx":28,"ny":28,"refTime":"2024-06-09T21:00:00:Z","depth":"4","parameterNumber":2,"parameterNumberName":"U-component_of_CURRENTS"},"data":[0,0,0,0,0,0,0,0,0,0,0,0,0,0,0,0,0,0,0,0,0,0,0,0,0,0,0,0,0,0,0,0,0,0,0,0,0,0,0,0,0,0,0,0,0,0,0,0,0,0,0,0,0,0,0,0,0,0,-0.0923,-0.092,0,-0.0739,-0.0739,-0.0738,-0.0734,-0.0735,-0.0736,-0.0736,-0.0871,-0.0874,-0.0877,0,0,0,0,0,0,0,0,0,0,0,0,0,-0.1129,-0.1128,-0.0923,-0.0919,-0.0915,-0.0739,-0.0739,-0.0738,-0.0734,-0.0735,-0.0736,-0.0737,-0.087,-0.0874,-0.0877,0,0,0,0,0,0,0,0,0,0,0,0,0,-0.1019,-0.1127,-0.0924,-0.088,-0.0873,-0.074,-0.0739,-0.0737,-0.0734,-0.0735,-0.0736,-0.0737,-0.0869,-0.0873,-0.0878,-0.0884,0,0,-0.0891,-0.0893,0,0,0,0,0,0,0,0,-0.1025,-0.1014,-0.089,-0.0882,-0.0874,-0.0746,-0.0859,-0.0796,-0.0734,-0.0805,-0.0736,-0.0738,-0.0847,-0.0853,-0.0836,-0.089,-0.0896,-0.0892,-0.0894,-0.0896,-0.0897,0,0,0,0,0,0,0,-0.1033,-0.102,-0.0868,-0.0885,-0.0875,-0.0819,-0.0808,-0.0847,-0.0842,-0.0799,-0.0794,-0.0745,-0.0847,-0.0832,-0.084,-0.0898,-0.0892,-0.0895,-0.0898,-0.09,-0.1124,-0.1127,0,0,0,0,0,0,-0.1027,-0.1028,-0.0874,-0.0861,-0.0934,-0.0814,-0.0802,-0.08,-0.0834,-0.0832,-0.0745,-0.0745,-0.0824,-0.0835,-0.0845,-0.0994,-0.0896,-0.09,-0.0903,-0.1121,-0.1125,-0.1128,0,0,0,0,0,0,-0.1033,-0.1017,-0.0881,-0.0924,-0.09,-0.0808,-0.0806,-0.0795,-0.0793,-0.0786,-0.0795,-0.0753,-0.0825,-0.0839,-0.0947,-0.0995,-0.0902,-0.0906,-0.1117,-0.1122,-0.1127,-0.1205,0,0,0,0,0,0,-0.1041,-0.1022,-0.1045,-0.0925,-0.0897,-0.0815,-0.0803,-0.079,-0.0752,-0.0753,-0.0796,-0.0808,-0.0827,-0.0941,-0.0952,-0.0999,-0.091,-0.1113,-0.1119,-0.1125,-0.1198,-0.1212,-0.1224,0,0,0,0,0,-0.105,-0.1074,-0.1049,-0.1029,-0.0925,-0.0813,-0.0797,-0.0744,-0.0751,-0.0751,-0.0825,-0.0807,-0.0987,-0.0948,-0.0959,-0.1009,-0.111,-0.1117,-0.1124,-0.1192,-0.1209,-0.1223,0,0,0,0,0,0,-0.1156,-0.107,-0.1041,-0.1035,-0.0931,-0.0806,-0.0802,-0.0753,-0.0799,-0.0841,-0.0856,-0.0875,-0.0974,-0.0992,-0.0948,-0.1095,-0.1042,-0.1052,-0.109,-0.1106,-0.1118,-0.1111,-0.0913,0,0,0,0,0,-0.1187,-0.1201,-0.107,-0.1057,-0.1024,-0.0918,-0.0875,-0.0831,-0.0823,-0.084,-0.0881,-0.0949,-0.1006,-0.1059,-0.1104,-0.1197,-0.117,-0.1237,-0.1249,-0.126,-0.1266,-0.1267,-0.1279,-0.1153,-0.1153,-0.1153,0,0,-0.1204,-0.1167,-0.1164,-0.1081,-0.1018,-0.0976,-0.0903,-0.0848,-0.0839,-0.0857,-0.0942,-0.0988,-0.1038,-0.1139,-0.1186,-0.117,-0.1286,-0.1269,-0.1278,-0.1278,-0.1276,-0.1288,-0.1298,-0.1158,-0.1157,-0.1156,0,0,-0.1233,-0.1235,-0.1245,-0.1193,-0.1099,-0.1034,-0.1021,-0.0935,-0.0939,-0.0997,-0.1017,-0.1103,-0.1197,-0.1239,-0.1271,-0.1384,-0.1338,-0.1404,-0.1483,-0.1486,-0.1495,-0.1503,-0.1486,-0.1492,-0.1429,-0.1429,-0.1429,0,-0.1254,-0.1258,-0.1217,-0.1213,-0.1178,-0.107,-0.1052,-0.1029,-0.0999,-0.1021,-0.1052,-0.1182,-0.1239,-0.1322,-0.1395,-0.1408,-0.1399,-0.1415,-0.1498,-0.1505,-0.1512,-0.1493,-0.1498,-0.1434,-0.1433,-0.1433,-0.1432,0,-0.1267,-0.1288,-0.129,-0.1271,-0.1239,-0.1201,-0.1142,-0.1155,-0.1166,-0.1137,-0.1226,-0.1304,-0.1374,-0.1417,-0.1466,-0.1545,-0.1517,-0.1492,-0.1446,-0.1528,-0.1504,-0.1508,-0.144,-0.1439,-0.1437,-0.1436,0,0,-0.1244,-0.129,-0.1291,-0.1305,-0.1274,-0.1229,-0.1266,-0.1225,-0.1252,-0.1279,-0.1325,-0.1453,-0.1467,-0.1508,-0.1547,-0.1598,-0.1667,-0.1603,-0.1601,-0.1564,-0.1667,-0.1585,-0.158,-0.1658,-0.1659,-0.166,-0.163,0,-0.1243,-0.1274,-0.1303,-0.1319,-0.1315,-0.1305,-0.134,-0.1324,-0.1342,-0.1381,-0.1414,-0.1482,-0.1497,-0.1569,-0.1612,-0.1652,-0.1683,-0.1677,-0.1613,-0.1611,-0.1509,-0.1584,-0.1665,-0.1633,-0.1634,-0.1634,-0.1634,0,-0.1224,-0.1255,-0.1288,-0.1356,-0.1358,-0.137,-0.1409,-0.1424,-0.1452,-0.1489,-0.1529,-0.1542,-0.1617,-0.1629,-0.1673,-0.1672,-0.169,-0.1708,-0.1705,-0.1602,-0.1536,-0.1537,-0.164,-0.164,-0.1639,-0.1639,-0.1639,0,-0.1181,-0.124,-0.1276,-0.129,-0.1348,-0.1388,-0.1411,-0.1453,-0.1478,-0.1539,-0.1585,-0.1615,-0.1664,-0.1671,-0.1716,-0.1707,-0.1756,-0.1717,-0.1635,-0.1627,-0.1669,-0.1661,-0.1741,-0.1741,-0.1741,-0.1741,-0.1741,0,-0.1148,-0.1178,-0.1265,-0.1276,-0.133,-0.1385,-0.1442,-0.1485,-0.1546,-0.157,-0.1623,-0.1651,-0.1691,-0.1713,-0.1723,-0.1688,-0.1733,-0.1656,-0.1622,-0.1705,-0.1702,-0.1671,-0.1663,-0.174,-0.174,-0.1741,-0.1741,0,-0.1085,-0.1143,-0.1188,-0.1277,-0.1308,-0.1342,-0.1433,-0.1467,-0.1549,-0.1589,-0.1612,-0.1682,-0.1705,-0.1721,-0.1755,-0.1692,-0.1676,-0.1654,-0.1749,-0.1719,-0.1535,-0.1532,-0.1522,-0.1519,-0.1517,-0.1515,-0.1513,0,-0.1056,-0.1073,-0.117,-0.1199,-0.1242,-0.1305,-0.1346,-0.1442,-0.1471,-0.158,-0.1584,-0.1655,-0.1682,-0.1633,-0.1675,-0.1637,-0.1631,-0.1597,-0.157,-0.1549,-0.1517,-0.1518,-0.1519,-0.1509,-0.1508,-0.1508,-0.1507,0,-0.0996,-0.104,-0.1077,-0.1134,-0.1184,-0.1232,-0.1295,-0.131,-0.141,-0.1502,-0.1517,-0.1527,-0.1558,-0.1559,-0.1568,-0.1539,-0.1601,-0.157,-0.1574,-0.1548,-0.1532,-0.1503,-0.1507,-0.1498,-0.1499,-0.15,-0.1501,0,-0.0951,-0.0964,-0.1017,-0.1056,-0.1114,-0.1133,-0.1184,-0.122,-0.1265,-0.1387,-0.1383,-0.146,-0.1536,-0.1509,-0.1505,-0.1485,-0.1446,-0.1387,-0.14,-0.141,-0.1391,-0.1356,-0.1248,0,0,0,0,0,-0.09,-0.0904,-0.0935,-0.0972,-0.1023,-0.1054,-0.1138,-0.1189,-0.129,-0.1264,-0.1319,-0.1337,-0.1342,-0.1384,-0.1336,-0.1446,-0.1451,-0.1384,-0.1389,-0.145,-0.146,-0.1451,0,0,0,0,0,0,-0.0865,-0.0892,-0.0902,-0.0885,-0.0893,-0.0938,-0.0985,-0.1058,-0.1052,-0.116,-0.1172,-0.125,-0.1277,-0.1346,-0.1305,-0.1316,-0.1291,-0.1434,-0.143,-0.1444,-0.1453,-0.1461,-0.1456,0,0,0,0,0]},{"header":{"parameterUnit":"m.s-1","parameterCategory":2,"la1":30.2991,"la2":30.254,"lo1":-89.0895,"lo2":-89.0444,"dy":0.0017,"dx":0.0017,"nx":28,"ny":28,"refTime":"2024-06-09T21:00:00:Z","depth":"4","parameterNumber":3,"parameterNumberName":"V-component_of_CURRENTS"},"data":[0,0,0,0,0,0,0,0,0,0,0,0,0,0,0,0,0,0,0,0,0,0,0,0,0,0,0,0,0,0,0,0,0,0,0,0,0,0,0,0,0,0,0,0,0,0,0,0,0,0,0,0,0,0,0,0,0,0,0.0039,0.0041,0,0.0127,0.0128,0.0128,0.018,0.0181,0.0182,0.0182,0.0284,0.0286,0.0288,0,0,0,0,0,0,0,0,0,0,0,0,0,-0.003,-0.003,0.0039,0.0041,0.0043,0.0127,0.0128,0.0128,0.018,0.0181,0.0182,0.0183,0.0284,0.0286,0.0288,0,0,0,0,0,0,0,0,0,0,0,0,0,0.0016,-0.003,0.0039,0.0084,0.0089,0.0127,0.0128,0.0128,0.018,0.0181,0.0182,0.0183,0.0283,0.0286,0.0288,0.028,0,0,0.0297,0.0298,0,0,0,0,0,0,0,0,0.0014,0.0018,0.0076,0.0081,0.0087,0.015,0.0141,0.0182,0.0179,0.0138,0.0182,0.0184,0.0244,0.025,0.0254,0.0285,0.0289,0.0297,0.0299,0.03,0.0301,0,0,0,0,0,0,0,0.001,0.0015,0.0067,0.0078,0.0085,0.0119,0.0126,0.0149,0.0177,0.0141,0.0147,0.0168,0.0247,0.0251,0.0257,0.029,0.0297,0.03,0.0302,0.0303,0.0489,0.0492,0,0,0,0,0,0,0.0009,0.0011,0.0064,0.007,0.0061,0.0119,0.0127,0.0123,0.0177,0.0189,0.0167,0.017,0.0245,0.0253,0.0261,0.0343,0.03,0.0303,0.0305,0.0486,0.049,0.0493,0,0,0,0,0,0,0.0007,0.0012,0.0061,0.005,0.006,0.0119,0.0115,0.0124,0.0143,0.0197,0.0208,0.0179,0.0247,0.0257,0.0323,0.0344,0.0304,0.0307,0.0482,0.0487,0.0491,0.045,0,0,0,0,0,0,0.0004,0.001,-0.0005,0.0049,0.0061,0.0078,0.0115,0.0125,0.0157,0.0162,0.0211,0.0221,0.0248,0.0319,0.0326,0.0347,0.0309,0.0478,0.0484,0.049,0.0448,0.0453,0.0458,0,0,0,0,0,0.0001,-0.0019,-0.0007,0.0,0.0041,0.0079,0.0086,0.013,0.0156,0.0152,0.0221,0.022,0.0364,0.0323,0.0331,0.0353,0.0475,0.0482,0.0489,0.0445,0.0452,0.0458,0,0,0,0,0,0,-0.0049,-0.0014,0.0001,-0.0006,0.0032,0.009,0.0091,0.013,0.0177,0.0191,0.0244,0.0258,0.0337,0.0359,0.0313,0.0436,0.0426,0.0435,0.039,0.0397,0.0402,0.0311,0.0311,0,0,0,0,0,-0.0069,-0.0082,-0.0029,-0.0034,-0.0022,0.0034,0.0054,0.0091,0.0149,0.0169,0.0223,0.0294,0.0369,0.0392,0.0456,0.0494,0.0484,0.0527,0.0532,0.0536,0.0476,0.0504,0.0503,0.0517,0.0517,0.0517,0,0,-0.0086,-0.0069,-0.0074,-0.0047,-0.002,-0.0001,0.0047,0.0078,0.01,0.0173,0.0222,0.0312,0.0392,0.0461,0.0496,0.0477,0.0538,0.0545,0.0547,0.0483,0.0511,0.0508,0.0506,0.0522,0.0521,0.052,0,0,-0.0121,-0.0117,-0.0137,-0.011,-0.0064,-0.0027,-0.0015,0.0054,0.0081,0.0148,0.0233,0.0329,0.0417,0.0484,0.0527,0.0596,0.0578,0.0639,0.0563,0.0593,0.0589,0.0586,0.0593,0.059,0.0624,0.0624,0.0624,0,-0.0142,-0.0158,-0.0133,-0.0132,-0.0109,-0.004,-0.0033,-0.0001,0.0092,0.0117,0.0161,0.0335,0.0422,0.0494,0.0538,0.0598,0.0595,0.0523,0.059,0.0586,0.0583,0.0591,0.0589,0.0623,0.0623,0.0623,0.0623,0,-0.0176,-0.0188,-0.0194,-0.0178,-0.0154,-0.0135,-0.0076,-0.0039,0.0023,0.0073,0.0166,0.0288,0.0381,0.0455,0.0512,0.0554,0.0556,0.06,0.0548,0.0577,0.0588,0.0585,0.0621,0.0622,0.0622,0.0622,0,0,-0.0213,-0.0222,-0.0221,-0.0229,-0.0173,-0.0155,-0.0125,-0.008,-0.0059,0.0033,0.0065,0.0221,0.0281,0.0334,0.0434,0.0459,0.0484,0.0501,0.0503,0.0459,0.0516,0.0526,0.0525,0.0526,0.0525,0.0525,0.0537,0,-0.0244,-0.0272,-0.0257,-0.0264,-0.0268,-0.0207,-0.0189,-0.0135,-0.0071,-0.002,0.0078,0.016,0.0232,0.0298,0.033,0.0467,0.0471,0.0474,0.0533,0.0534,0.0499,0.052,0.0522,0.0535,0.0534,0.0534,0.0534,0,-0.0268,-0.0288,-0.0314,-0.0318,-0.0315,-0.0306,-0.026,-0.0234,-0.0159,-0.0109,-0.0046,0.0043,0.0121,0.0186,0.0299,0.0291,0.0371,0.0448,0.0452,0.0452,0.0538,0.0503,0.0529,0.053,0.053,0.053,0.053,0,-0.0297,-0.0321,-0.0351,-0.0346,-0.0336,-0.0338,-0.0323,-0.0258,-0.0244,-0.0172,-0.0136,-0.0053,0.0021,0.0099,0.0271,0.028,0.0381,0.0434,0.0493,0.0495,0.0492,0.0496,0.0461,0.0461,0.0461,0.0461,0.0461,0,-0.0319,-0.0344,-0.0377,-0.0388,-0.042,-0.0391,-0.0399,-0.0364,-0.0318,-0.03,-0.02,-0.0157,-0.0001,0.0097,0.0218,0.0342,0.034,0.0444,0.049,0.0486,0.0489,0.0492,0.0495,0.0461,0.0461,0.0461,0.0461,0,-0.0334,-0.0356,-0.0399,-0.0424,-0.0437,-0.0455,-0.0464,-0.0462,-0.0415,-0.0385,-0.0367,-0.0238,-0.0109,0.0039,0.021,0.0291,0.0414,0.0455,0.0412,0.0462,0.0509,0.0511,0.0491,0.0491,0.0491,0.0492,0.0492,0,-0.0345,-0.0371,-0.0432,-0.0466,-0.0485,-0.0516,-0.0531,-0.0509,-0.0499,-0.0426,-0.041,-0.0287,-0.0186,0.0038,0.0196,0.0379,0.0419,0.0459,0.0482,0.046,0.0508,0.051,0.0512,0.0492,0.0492,0.0492,0.0492,0,-0.0362,-0.039,-0.0427,-0.0503,-0.0545,-0.0584,-0.0605,-0.0608,-0.0567,-0.0535,-0.0431,-0.0298,-0.0153,0.0035,0.0182,0.0321,0.0423,0.0462,0.0462,0.0484,0.0462,0.0509,0.0511,0.0493,0.0493,0.0493,0.0493,0,-0.0375,-0.041,-0.047,-0.053,-0.059,-0.0629,-0.064,-0.062,-0.0605,-0.0518,-0.0485,-0.0313,-0.0207,0.0004,0.0143,0.0277,0.031,0.0349,0.0356,0.0357,0.033,0.0283,0.0267,0,0,0,0,0,-0.0382,-0.0428,-0.0492,-0.0561,-0.0619,-0.0651,-0.0674,-0.0669,-0.0636,-0.057,-0.0524,-0.038,-0.0152,-0.0044,0.0088,0.0135,0.032,0.0292,0.0364,0.0498,0.0497,0.049,0,0,0,0,0,0,-0.0393,-0.0454,-0.0492,-0.057,-0.0619,-0.0677,-0.0692,-0.0673,-0.0621,-0.0568,-0.0441,-0.036,-0.0136,-0.023,0.0087,0.0129,0.0189,0.0405,0.0408,0.0498,0.0497,0.0497,0.049,0,0,0,0,0]}]]